When you browse on this site, cookies collect data to enhance your experience and personalize the content and advertising you see.
Visit our Privacy Policy to learn more. By continuing to use the site, you agree to this use of cookies and data.
  • In Österreich
  • Länderverzeichnis
  • Für 7 Tage
  • Wassertemperatur
  • Satellitenkarten
  • Wetterkarte
  • News
  • Widgets
  • user-avatar
    Anmelden

    Stündliche Wetter Ilebo

    Heute, 10 Dezember, Montag

    Zeit Temperatur Niederschläge Wind Luftdruck Luftfeuchtigkeit
    00:00 +25°C° 0 mm 0 m/S 724 mmHg 31%
    01:00 +24°C° 0 mm 0 m/S 724 mmHg 32%
    02:00 +23°C° 0 mm 0 m/S 723 mmHg 33%
    03:00 +23°C° 0 mm 0 m/S 723 mmHg 35%
    04:00 +22°C° 0 mm 0 m/S 723 mmHg 36%
    05:00 +23°C° 0 mm 0 m/S 724 mmHg 36%
    06:00 +24°C° 0 mm 0 m/S 724 mmHg 35%
    07:00 +25°C° 0 mm 0 m/S 725 mmHg 35%
    08:00 +29°C° 0 mm 0 m/S 725 mmHg 29%
    09:00 +34°C° 0 mm 1 m/S 725 mmHg 24%
    10:00 +39°C° 0 mm 1 m/S 725 mmHg 18%
    11:00 +40°C° 0 mm 1 m/S 725 mmHg 17%
    12:00 +40°C° 0 mm 1 m/S 724 mmHg 16%
    13:00 +41°C° 0 mm 1 m/S 723 mmHg 15%
    14:00 +41°C° 0 mm 1 m/S 722 mmHg 16%
    15:00 +40°C° 0 mm 1 m/S 722 mmHg 17%
    16:00 +39°C° 0 mm 1 m/S 721 mmHg 18%
    17:00 +36°C° 0 mm 1 m/S 721 mmHg 21%
    18:00 +33°C° 0 mm 1 m/S 722 mmHg 25%
    19:00 +29°C° 0 mm 0 m/S 722 mmHg 28%
    20:00 +30°C° 0 mm 1 m/S 722 mmHg 31%
    21:00 +30°C° 0 mm 1 m/S 723 mmHg 33%
    22:00 +29°C° 0 mm 1 m/S 723 mmHg 36%
    23:00 +28°C° 0 mm 1 m/S 723 mmHg 39%

    Morgen, 11 Dezember, Dienstag

    Zeit Temperatur Niederschläge Wind Luftdruck Luftfeuchtigkeit
    00:00 +28°C° 0 mm 1 m/S 723 mmHg 42%
    01:00 +27°C° 0 mm 1 m/S 722 mmHg 46%
    02:00 +26°C° 0 mm 1 m/S 722 mmHg 49%
    03:00 +26°C° 0 mm 1 m/S 722 mmHg 51%
    04:00 +25°C° 0 mm 1 m/S 722 mmHg 54%
    05:00 +26°C° 0 mm 1 m/S 723 mmHg 52%
    06:00 +27°C° 0 mm 1 m/S 724 mmHg 50%
    07:00 +28°C° 0 mm 1 m/S 724 mmHg 49%
    08:00 +31°C° 0 mm 1 m/S 724 mmHg 43%
    09:00 +34°C° 0 mm 1 m/S 725 mmHg 37%
    10:00 +37°C° 0 mm 1 m/S 725 mmHg 31%
    11:00 +39°C° 0 mm 1 m/S 724 mmHg 28%
    12:00 +40°C° 0 mm 1 m/S 723 mmHg 26%
    13:00 +41°C° 0 mm 1 m/S 722 mmHg 23%
    14:00 +39°C° 0 mm 1 m/S 722 mmHg 26%
    15:00 +37°C° 0 mm 1 m/S 721 mmHg 29%
    16:00 +35°C° 0 mm 1 m/S 721 mmHg 32%
    17:00 +34°C° 0 mm 1 m/S 721 mmHg 34%
    18:00 +32°C° 0 mm 1 m/S 722 mmHg 37%
    19:00 +31°C° 0 mm 1 m/S 722 mmHg 40%
    20:00 +30°C° 0 mm 1 m/S 723 mmHg 43%
    21:00 +30°C° 0 mm 1 m/S 723 mmHg 46%
    22:00 +29°C° 0 mm 1 m/S 723 mmHg 48%
    23:00 +28°C° 0 mm 1 m/S 723 mmHg 51%

    übermorgen, 12 Dezember, Mittwoch

    Zeit Temperatur Niederschläge Wind Luftdruck Luftfeuchtigkeit
    00:00 +28°C° 0 mm 1 m/S 723 mmHg 53%
    01:00 +27°C° 0 mm 1 m/S 723 mmHg 55%
    02:00 +27°C° 0 mm 1 m/S 722 mmHg 57%
    03:00 +26°C° 0 mm 1 m/S 722 mmHg 59%
    04:00 +26°C° 0 mm 1 m/S 722 mmHg 61%
    05:00 +27°C° 0 mm 1 m/S 723 mmHg 59%
    06:00 +28°C° 0 mm 1 m/S 724 mmHg 57%
    07:00 +28°C° 0 mm 1 m/S 724 mmHg 55%
    08:00 +31°C° 0 mm 1 m/S 725 mmHg 48%
    09:00 +34°C° 0 mm 1 m/S 725 mmHg 41%
    10:00 +37°C° 0 mm 1 m/S 725 mmHg 34%
    11:00 +40°C° 0 mm 1 m/S 724 mmHg 31%
    12:00 +38°C° 0 mm 0 m/S 724 mmHg 28%
    13:00 +39°C° 0 mm 0 m/S 723 mmHg 25%
    14:00 +37°C° 0 mm 0 m/S 722 mmHg 28%
    15:00 +35°C° 0 mm 0 m/S 721 mmHg 31%
    16:00 +33°C° 0 mm 0 m/S 721 mmHg 35%
    17:00 +34°C° 0 mm 1 m/S 721 mmHg 38%
    18:00 +32°C° 0 mm 1 m/S 722 mmHg 41%
    19:00 +31°C° 0 mm 1 m/S 723 mmHg 45%
    20:00 +30°C° 0 mm 1 m/S 723 mmHg 49%
    21:00 +29°C° 0 mm 1 m/S 723 mmHg 54%
    22:00 +28°C° 0 mm 2 m/S 724 mmHg 59%
    23:00 +28°C° 0 mm 2 m/S 723 mmHg 63%

    13 Dezember, Donnerstag

    Zeit Temperatur Niederschläge Wind Luftdruck Luftfeuchtigkeit
    00:00 +27°C° 0 mm 1 m/S 723 mmHg 67%
    01:00 +26°C° 0 mm 1 m/S 722 mmHg 71%
    02:00 +26°C° 0 mm 1 m/S 722 mmHg 73%
    03:00 +26°C° 0 mm 1 m/S 722 mmHg 74%
    04:00 +25°C° 0 mm 1 m/S 722 mmHg 76%
    05:00 +26°C° 0 mm 1 m/S 723 mmHg 73%
    06:00 +27°C° 0 mm 1 m/S 724 mmHg 69%
    07:00 +28°C° 0 mm 1 m/S 725 mmHg 66%
    08:00 +31°C° 0 mm 1 m/S 725 mmHg 56%
    09:00 +34°C° 0 mm 1 m/S 725 mmHg 46%
    10:00 +37°C° 0 mm 1 m/S 726 mmHg 37%
    11:00 +39°C° 0 mm 1 m/S 725 mmHg 33%
    12:00 +40°C° 0 mm 1 m/S 724 mmHg 30%
    13:00 +41°C° 0 mm 1 m/S 723 mmHg 27%
    14:00 +39°C° 0 mm 1 m/S 722 mmHg 29%
    15:00 +35°C° 0 mm 0 m/S 722 mmHg 31%
    16:00 +33°C° 0 mm 0 m/S 721 mmHg 33%
    17:00 +32°C° 0 mm 0 m/S 722 mmHg 36%
    18:00 +32°C° 0 mm 1 m/S 722 mmHg 39%
    19:00 +31°C° 0 mm 1 m/S 723 mmHg 42%
    20:00 +30°C° 0 mm 1 m/S 723 mmHg 45%
    21:00 +29°C° 0 mm 1 m/S 723 mmHg 48%
    22:00 +29°C° 0 mm 1 m/S 723 mmHg 51%
    23:00 +28°C° 0 mm 1 m/S 723 mmHg 53%

    14 Dezember, Freitag

    Zeit Temperatur Niederschläge Wind Luftdruck Luftfeuchtigkeit
    00:00 +28°C° 0 mm 1 m/S 722 mmHg 54%
    01:00 +27°C° 0 mm 1 m/S 722 mmHg 56%
    02:00 +27°C° 0 mm 1 m/S 722 mmHg 58%
    03:00 +24°C° 0 mm 0 m/S 722 mmHg 60%
    04:00 +24°C° 0 mm 0 m/S 722 mmHg 61%
    05:00 +25°C° 0 mm 0 m/S 723 mmHg 59%
    06:00 +26°C° 0 mm 0 m/S 724 mmHg 56%
    07:00 +27°C° 0 mm 0 m/S 724 mmHg 53%
    08:00 +31°C° 0 mm 0 m/S 725 mmHg 45%
    09:00 +34°C° 0 mm 0 m/S 725 mmHg 36%
    10:00 +38°C° 0 mm 0 m/S 725 mmHg 28%
    11:00 +39°C° 0 mm 0 m/S 724 mmHg 25%
    12:00 +43°C° 0 mm 1 m/S 723 mmHg 21%
    13:00 +43°C° 0 mm 1 m/S 722 mmHg 18%
    14:00 +42°C° 0 mm 1 m/S 722 mmHg 19%
    15:00 +41°C° 0 mm 1 m/S 721 mmHg 19%
    16:00 +39°C° 0 mm 1 m/S 721 mmHg 20%
    17:00 +36°C° 0 mm 1 m/S 721 mmHg 23%
    18:00 +34°C° 0 mm 1 m/S 722 mmHg 27%
    19:00 +32°C° 0 mm 1 m/S 722 mmHg 30%
    20:00 +31°C° 0 mm 1 m/S 722 mmHg 33%
    21:00 +30°C° 0 mm 1 m/S 722 mmHg 36%
    22:00 +29°C° 0 mm 1 m/S 722 mmHg 39%
    23:00 +29°C° 0 mm 1 m/S 722 mmHg 42%

    15 Dezember, Samstag

    Zeit Temperatur Niederschläge Wind Luftdruck Luftfeuchtigkeit
    00:00 +28°C° 0 mm 1 m/S 722 mmHg 46%
    01:00 +28°C° 0 mm 1 m/S 722 mmHg 49%
    02:00 +27°C° 0 mm 1 m/S 722 mmHg 50%
    03:00 +27°C° 0 mm 1 m/S 722 mmHg 50%
    04:00 +27°C° 0 mm 1 m/S 722 mmHg 51%
    05:00 +27°C° 0 mm 1 m/S 723 mmHg 48%
    06:00 +26°C° 0 mm 0 m/S 723 mmHg 45%
    07:00 +27°C° 0 mm 0 m/S 724 mmHg 42%
    08:00 +31°C° 0 mm 0 m/S 724 mmHg 36%
    09:00 +34°C° 0 mm 0 m/S 724 mmHg 30%
    10:00 +40°C° 0 mm 1 m/S 725 mmHg 24%
    11:00 +42°C° 0 mm 1 m/S 724 mmHg 22%
    12:00 +43°C° 0 mm 1 m/S 723 mmHg 20%
    13:00 +44°C° 0 mm 1 m/S 722 mmHg 17%
    14:00 +42°C° 0 mm 1 m/S 722 mmHg 19%
    15:00 +41°C° 0 mm 1 m/S 721 mmHg 21%
    16:00 +39°C° 0 mm 2 m/S 721 mmHg 23%
    17:00 +37°C° 0 mm 2 m/S 721 mmHg 30%
    18:00 +35°C° 0 mm 2 m/S 721 mmHg 37%
    19:00 +32°C° 0 mm 2 m/S 722 mmHg 44%
    20:00 +31°C° 0 mm 2 m/S 722 mmHg 49%
    21:00 +30°C° 0 mm 1 m/S 722 mmHg 53%
    22:00 +29°C° 0 mm 1 m/S 722 mmHg 58%
    23:00 +29°C° 0 mm 1 m/S 722 mmHg 59%
    Mehr zeigen